Location: London
(51.5074°N, 0.1278°W)
Time: 20:48:33
(UTC+01:00)

Envisat - Pass Details

Date: 30 September 2021
Orbit: 764 x 766 km, 98.2° (Epoch: 27 October)

Event Time Altitude Azimuth Distance (km) Brightness Sun altitude
Rises 05:09:33 0° 24° (NNE) 3,245 6.9 -17.7°
Reaches altitude 10° 05:12:21 10° 39° (NE) 2,313 6.3 -17.3°
Maximum altitude 05:16:21 23° 91° (E) 1,595 5.5 -16.7°
Drops below altitude 10° 05:20:19 10° 142° (SE) 2,298 5.7 -16.1°
Sets 05:23:05 0° 157° (SSE) 3,219 6.3 -15.7°
